288  
FPUS83 KFGF 271831  
OPUFGF  
PRAIRIE TO PINES WEATHER ROUNDUP  
NATIONAL WEATHER SERVICE EASTERN NORTH DAKOTA/GRAND FORKS ND  
100 PM CDT TUE JUN 27 2017  
 
**SATELLITE DATA USED TO AUGMENT SKY COVER AT AUTOMATED STATIONS**  
***** WEATHER ACROSS EASTERN NORTH DAKOTA *****  
 
CITY SKY/WX TMP DP RH WIND PRES REMARKS  
GRAND FORKS FAIR 77 48 35 S20G31 29.75F  
6HR MIN TEMP: 53; 6HR MAX TEMP: 78;  
 
GRAND FORKS AF FAIR 77 45 31 S24G31 29.75F  
GRAND CITY NWS NOT AVBL  
BUXTON N/A 76 50 39 S16G28 N/A  
DEVILS LAKE FAIR 74 48 39 S24 29.71R  
6HR MIN TEMP: 58; 6HR MAX TEMP: 75;  
 
FARGO FAIR 74 43 32 S22G31 29.81F  
6HR MIN TEMP: 57; 6HR MAX TEMP: 75;  
 
WAHPETON ARPT FAIR 70 37 30 S20 29.84F  

 
 
***** WEATHER ACROSS CENTRAL AND WESTERN NORTH DAKOTA *****  
 
CITY SKY/WX TMP DP RH WIND PRES REMARKS  
JAMESTOWN FAIR 71 47 42 S21 29.73F  
6HR MIN TEMP: 55; 6HR MAX TEMP: 71;  
 
BISMARCK FAIR 82 55 39 S23G31 29.65F  
6HR MIN TEMP: 59; 6HR MAX TEMP: 82;  
 
MINOT FAIR 79 51 37 S13G23 29.58F  
6HR MIN TEMP: 63; 6HR MAX TEMP: 79;  
 
MINOT AFB FAIR 78 50 38 S14 29.57F  
6HR MIN TEMP: 63; 6HR MAX TEMP: 78;  
 
GARRISON N/A 77 52 41 S20G26 29.61F  
6HR MIN TEMP: 59; 6HR MAX TEMP: 77;  
 
WILLISTON FAIR 85 48 27 SW8 29.55F  
6HR MIN TEMP: 66; 6HR MAX TEMP: 85;  
 
DICKINSON FAIR 82 49 31 S16 29.59F  
6HR MIN TEMP: 57; 6HR MAX TEMP: 83;  
 
HETTINGER FAIR 84 54 35 S13 29.63F  
6HR MIN TEMP: 58; 6HR MAX TEMP: 85;  
 

 
 
***** OTHER OBSERVATIONS NORTHEAST NORTH DAKOTA *****  
 
CITY SKY/WX TMP DP RH WIND PRES REMARKS  
WALHALLA NOT AVBL  
LANGDON FAIR 77 48 36 S25G35 29.71F  
CAVALIER FAIR 77 45 31 S23G30 29.70F  
GRAFTON FAIR 77 48 36 S20G32 29.74F  
CANDO NOT AVBL  
FORT TOTTEN NOT AVBL  
ROLLA N/A 73 52 46 S28G38 29.65F  
RUGBY NOT AVBL  
***** THE ABOVE OBSERVATIONS ARE NON NWS ARE NOT QUALITY  
CONTROLLED AND MAY MIS-REPORT RAIN FOR SNOW...  

 
 
***** OTHER OBSERVATIONS SOUTHEAST NORTH DAKOTA *****  
 
CITY SKY/WX TMP DP RH WIND PRES REMARKS  
COOPERSTOWN FAIR 73 48 40 S28G39 29.73R  
VALLEY CITY FAIR 68 48 49 S22 29.78F  
OAKES NOT AVBL  
GWINNER CLOUDY 73 48 40 S20 29.81F  
SHEYENNE NWR N/A 71 49 46 S14 29.95S  
BUFFALO N/A 72 44 36 E18 N/A  
WYNDMERE NOT AVBL  
***** THE ABOVE OBSERVATIONS ARE NON NWS ARE NOT QUALITY  
CONTROLLED AND MAY MIS-REPORT RAIN FOR SNOW...  

 
 
***** WEATHER ACROSS NORTHERN MINNESOTA *****  
 
CITY SKY/WX TMP DP RH WIND PRES REMARKS  
FLAG ISLAND FAIR 72 46 40 S7 29.81F  
WARROAD FAIR 72 46 40 S13G21 29.82F  
ROSEAU FAIR 72 50 46 SW10G21 29.81F  
HALLOCK FAIR 73 48 40 S22 29.74F  
THF RVR FALLS FAIR 72 42 34 S21G28 29.82F  
6HR MIN TEMP: 52; 6HR MAX TEMP: 72;  
 
HALSTAD N/A 75 45 34 S23 N/A  
FOSSTON FAIR 70 45 40 S18G26 29.84F  
BAUDETTE FAIR 72 46 39 SW16G24 29.84F  
6HR MIN TEMP: 50; 6HR MAX TEMP: 72;  
 
WASKISH PTSUNNY 72 46 40 SW13G18 29.85F  
CROOKSTON FAIR 75 45 33 S21G28 29.79F  

 
***** WEATHER ACROSS CENTRAL AND WEST MINNESOTA *****  
 
CITY SKY/WX TMP DP RH WIND PRES REMARKS  
BEMIDJI FAIR 71 43 36 S14G22 29.87F  
PARK RAPIDS FAIR 72 40 31 S16G28 29.91F  
6HR MIN TEMP: 51; 6HR MAX TEMP: 73;  
 
WADENA FAIR 72 45 37 S17 29.90F  
DETROIT LAKES FAIR 72 41 33 S17G24 29.88F  
MOORHEAD FAIR 72 41 33 S23 29.82F  
FERGUS FALLS FAIR 72 46 40 S17G25 29.84F  
ELBOW LAKE FAIR 70 46 42 S20G26 29.89F  
6HR MIN TEMP: 54; 6HR MAX TEMP: 70;  
 
MORRIS MN FAIR 73 41 31 S20 29.90F  
STAPLES FAIR 72 37 28 S16 29.93F  
WHEATON FAIR 72 39 30 S14G20 29.87F  

 
***** WEATHER ELSEWHERE ACROSS MINNESOTA *****  
 
CITY SKY/WX TMP DP RH WIND PRES REMARKS  
DULUTH FAIR 72 45 37 SW16G23 29.96F  
6HR MIN TEMP: 55; 6HR MAX TEMP: 72;  
 
INTRNTL FALLS FAIR 72 45 37 S10G22 29.86F  
6HR MIN TEMP: 49; 6HR MAX TEMP: 72;  
 
ELY FAIR 70 43 37 SW9G16 29.92F  
CLOQUET FAIR 72 39 30 S9G21 29.95F  
BRAINERD FAIR 72 40 31 S16G22 29.95F  
6HR MIN TEMP: 47; 6HR MAX TEMP: 72;  
 
HIBBING FAIR 69 42 37 S9G20 29.93F  
6HR MIN TEMP: 45; 6HR MAX TEMP: 69;  
 
ALEXANDRIA FAIR 70 43 37 S14 29.95F  
6HR MIN TEMP: 56; 6HR MAX TEMP: 71;  
 
SAINT CLOUD FAIR 74 39 28 S17 29.97F  
6HR MIN TEMP: 49; 6HR MAX TEMP: 74;  
 
MINNEAPOLIS PTSUNNY 73 41 31 SW13G21 30.01F  
6HR MIN TEMP: 56; 6HR MAX TEMP: 74;  
 

 
 
***** WEATHER ACROSS SOUTH DAKOTA *****  
 
CITY SKY/WX TMP DP RH WIND PRES REMARKS  
SIOUX FALLS PTSUNNY 74 54 49 S21G29 29.93F  
6HR MIN TEMP: 56; 6HR MAX TEMP: 74;  
 
BROOKINGS FAIR 73 47 39 S22G30 29.90F  
WATERTOWN FAIR 72 45 37 S24G31 29.87F  
6HR MIN TEMP: 49; 6HR MAX TEMP: 73;  
 
HURON FAIR 77 49 37 S23G32 29.82F  
6HR MIN TEMP: 51; 6HR MAX TEMP: 77;  
 
SISSETON N/A 76 47 35 S22G30 29.84F  
ABERDEEN FAIR 76 48 37 S20G33 29.80F  
6HR MIN TEMP: 49; 6HR MAX TEMP: 76;  
 
MITCHELL FAIR 78 47 33 S16G31 29.86F  
PIERRE FAIR 83 57 41 S24G41 29.67F  
6HR MIN TEMP: 55; 6HR MAX TEMP: 83;  
 
MOBRIDGE FAIR 83 54 36 S24G35 29.66F  
RAPID CITY FAIR 81 57 43 S14 29.66S  
6HR MIN TEMP: 60; 6HR MAX TEMP: 87;  
 

 
 
***** SOME WEATHER IN NEARBY STATES *****  
 
CITY SKY/WX TMP DP RH WIND PRES REMARKS  
GLASGOW MT PTSUNNY 77 50 38 NW14 29.61R  
6HR MIN TEMP: 61; 6HR MAX TEMP: 80; 6HR PCP: TRACE;  
 
GREAT FALLS MT FAIR 73 45 36 W8 29.78R  
6HR MIN TEMP: 62; 6HR MAX TEMP: 74; 6HR PCP: TRACE;  
 
CHEYENNE WY FAIR 88 37 16 S17G25 29.92F  
6HR MIN TEMP: 54; 6HR MAX TEMP: 88;  
 
SCOTTSBLUFF NE FAIR 88 54 31 S6 29.78R  
6HR MIN TEMP: 63; 6HR MAX TEMP: 89;  
 
OMAHA NE PTSUNNY 77 58 51 S21G26 30.00F  
6HR MIN TEMP: 57; 6HR MAX TEMP: 77;  
 
DES MOINES IA FAIR 74 46 36 S10 30.06F  
6HR MIN TEMP: 55; 6HR MAX TEMP: 75;  
 
DAVENPORT IA NOT AVBL  
CHICAGO IL FAIR 73 43 33 NW10 30.10F  
6HR MIN TEMP: 58; 6HR MAX TEMP: 74;  
 
EAU CLAIRE WI FAIR 72 43 35 SW12 30.02F  
6HR MIN TEMP: 53; 6HR MAX TEMP: 73;  
 
LA CROSSE WI FAIR 77 43 29 S8 30.06F  
6HR MIN TEMP: 58; 6HR MAX TEMP: 78;  
 

 
 
***** SOME NATIONAL WEATHER *****  
 
CITY SKY/WX TMP DP RH WIND PRES REMARKS  
LA GUARDIA NY FAIR 77 56 48 W9G16 29.94F  
6HR MIN TEMP: 63; 6HR MAX TEMP: 77; 6HR PCP: TRACE;  
 
CLICK HERE TO GO TO PREVIOUS BULLETINS.

The Nexlab ND Page
The Nexlab MN Page Main Text Page